This demonstration page uses our WeatherBlox Daily Observations layout. Learn more.

Left ArrowRight Arrow

39.51506, -84.39828

Hourly Observations for September 13, 2020

Temp ( °F °C ) Dew Point ( °F °C ) Humidity (%) Winds ( mph kmh ) Pressure ( in mb ) Visibility ( mi km ) Precip ( " mm )
12:15 am 00:15 Cloudy 77 25.2 74 23.4 90 90 SW 3 6 29.96 1015 10 16.0934 0 0
12:35 am 00:35 Cloudy with Thunderstorms 77 24.8 76 24.2 96 96 S 12 19 29.96 1015 7 11.26538 0.03 0.762
12:55 am 00:55 Cloudy with Thunderstorms 76 24.4 75 24.1 98 98 S 12 19 29.96 1015 5 8.0467 0.08 2.032
1:15 am 01:15 Cloudy with Heavy Rain 75 23.7 74 23.6 99 99 S 15 24 29.98 1015 3 4.82802 0.19 4.826
1:35 am 01:35 Cloudy with Light Rain 73 22.9 72 22.3 96 96 S 7 11 29.97 1015 10 16.0934 0.22 5.588
1:55 am 01:55 Cloudy 74 23.1 73 22.7 98 98 S 6 9 29.96 1014 10 16.0934 0.22 5.588
2:15 am 02:15 Mostly Cloudy 74 23.1 73 22.7 98 98 S 7 11 29.96 1014 10 16.0934 0 0
2:35 am 02:35 Mostly Cloudy 73 22.9 73 22.5 98 98 S 8 13 29.96 1014 10 16.0934 0 0
2:55 am 02:55 Partly Cloudy 73 22.6 72 22.2 98 98 SSW 7 11 29.95 1014 10 16.0934 0 0
3:15 am 03:15 Mostly Cloudy 73 22.6 72 22.4 99 99 S 6 9 29.95 1014 10 16.0934 0 0
3:35 am 03:35 Cloudy 73 22.7 73 22.5 99 99 S 5 7 29.95 1014 10 16.0934 0 0
3:55 am 03:55 Cloudy 73 22.7 73 22.6 99 99 S 5 7 29.95 1014 10 16.0934 0 0
4:15 am 04:15 Cloudy 73 22.8 73 22.7 99 99 S 6 9 29.95 1014 10 16.0934 0 0
4:35 am 04:35 Cloudy 73 22.8 73 22.7 99 99 SSW 7 11 29.95 1014 10 16.0934 0 0
4:55 am 04:55 Cloudy 73 22.7 73 22.6 99 99 S 7 11 29.95 1014 10 16.0934 0 0
5:15 am 05:15 Cloudy 73 22.7 73 22.6 99 99 S 6 9 29.95 1014 10 16.0934 0 0
5:35 am 05:35 Cloudy 73 22.7 72 22.4 98 98 SSW 13 20 29.95 1014 10 16.0934 0 0
5:55 am 05:55 Cloudy 73 22.6 72 22.2 98 98 SSW 7 11 29.95 1014 10 16.0934 0 0
6:15 am 06:15 Mostly Cloudy 72 22.3 72 22.1 99 99 SW 6 9 29.94 1014 10 16.0934 0 0
6:35 am 06:35 Cloudy 72 22.3 72 22.2 99 99 SSW 6 9 29.95 1014 10 16.0934 0 0
6:55 am 06:55 Cloudy 72 22.3 72 22.2 99 99 SSW 6 9 29.95 1014 10 16.0934 0 0
7:15 am 07:15 Cloudy 72 22.4 72 22.3 99 99 SSW 7 11 29.97 1015 10 16.0934 0 0
7:35 am 07:35 Cloudy 73 22.5 72 22.4 99 99 SSW 7 11 29.97 1015 10 16.0934 0 0
7:55 am 07:55 Cloudy with Light Rain 72 22.4 72 22.3 99 99 SSW 8 13 29.98 1015 5 8.0467 0.01 0.254
8:15 am 08:15 Cloudy 72 22.4 72 22.4 100 100 SSW 6 9 29.99 1016 7 11.26538 0 0
8:35 am 08:35 Cloudy 73 22.5 72 22.4 99 99 SW 5 7 29.99 1016 7 11.26538 0 0
8:55 am 08:55 Cloudy 73 22.6 73 22.5 99 99 SW 3 6 30 1016 10 16.0934 0 0
9:15 am 09:15 Cloudy 73 22.9 73 22.5 98 98 SW 3 6 30 1016 10 16.0934 0 0
9:35 am 09:35 Cloudy with Light Rain 72 22.1 70 20.9 93 93 NNW 9 15 30.01 1016 10 16.0934 0 0
9:55 am 09:55 Mostly Cloudy 72 22.1 69 20.8 92 92 N 12 19 30.01 1016 10 16.0934 0 0
10:15 am 10:15 Partly Cloudy 72 22.1 69 20.5 91 91 Calm 30.02 1017 10 16.0934 0 0
10:35 am 10:35 Partly Cloudy 73 22.9 69 20.5 86 86 NNW 6 9 30.02 1017 10 16.0934 0 0
10:55 am 10:55 Partly Cloudy 74 23.3 68 20.2 83 83 NNW 10 17 30.03 1017 10 16.0934 0 0
11:15 am 11:15 Sunny 75 23.7 67 19.3 76 76 NW 5 7 30.04 1017 10 16.0934 0 0
11:35 am 11:35 Sunny 76 24.4 67 19.4 74 74 NW 5 7 30.03 1017 10 16.0934 0 0
11:55 am 11:55 Sunny 76 24.6 67 19.2 72 72 W 6 9 30.03 1017 10 16.0934 0 0
12:15 pm 12:15 Sunny 77 25 67 19.3 71 71 Calm 30.02 1017 10 16.0934 0 0
12:35 pm 12:35 Sunny 79 25.9 67 19.5 68 68 WSW 6 9 30.02 1017 10 16.0934 0 0
12:55 pm 12:55 Sunny 79 26.3 63 17.4 58 58 W 5 7 30.02 1017 10 16.0934 0 0
1:15 pm 13:15 Sunny 80 26.4 63 17.3 57 57 Calm 30.02 1017 10 16.0934 0 0
1:35 pm 13:35 Sunny 80 26.9 63 17.3 56 56 Calm 30.02 1017 10 16.0934 0 0
1:55 pm 13:55 Sunny 81 27.4 61 16 50 50 WNW 6 9 30.02 1017 10 16.0934 0 0
2:15 pm 14:15 Sunny 82 27.9 60 15.7 47 47 SSE 3 6 30.02 1016 10 16.0934 0 0
2:35 pm 14:35 Sunny 82 27.9 61 16.1 49 49 Calm 30.01 1016 10 16.0934 0 0
2:55 pm 14:55 Sunny 82 27.9 60 15.8 48 48 SSW 3 6 30.01 1016 10 16.0934 0 0
3:15 pm 15:15 Sunny 83 28.1 60 15.5 46 46 Calm 30.01 1016 10 16.0934 0 0
3:35 pm 15:35 Sunny 82 27.9 60 15.3 46 46 Calm 30.01 1016 10 16.0934 0 0
3:55 pm 15:55 Sunny 82 27.7 61 16 49 49 SW 3 6 30.01 1016 10 16.0934 0 0
4:15 pm 16:15 Sunny 82 28 62 16.6 50 50 SW 8 13 30.02 1016 10 16.0934 0 0
4:35 pm 16:35 Partly Cloudy 82 27.8 61 16.3 50 50 SW 5 7 30.02 1016 10 16.0934 0 0
4:55 pm 16:55 Cloudy 83 28.1 61 16.3 49 49 W 8 13 30.02 1016 10 16.0934 0 0
5:15 pm 17:15 Cloudy 82 27.6 62 16.7 51 51 W 6 9 30.02 1016 10 16.0934 0 0
5:35 pm 17:35 Cloudy 81 27.2 63 17.1 54 54 NW 7 11 30.03 1017 10 16.0934 0 0
5:55 pm 17:55 Mostly Cloudy 81 27.2 64 17.5 55 55 NW 6 9 30.03 1017 10 16.0934 0 0
6:15 pm 18:15 Sunny 80 26.4 63 17.3 57 57 NNW 8 13 30.04 1017 10 16.0934 0 0
6:35 pm 18:35 Sunny 78 25.8 63 17.2 59 59 NNW 7 11 30.04 1017 10 16.0934 0 0
6:55 pm 18:55 Sunny 78 25.4 63 17.4 61 61 NNW 6 9 30.05 1018 10 16.0934 0 0
7:15 pm 19:15 Partly Cloudy 77 25 64 17.5 63 63 NNW 5 7 30.05 1018 10 16.0934 0 0
7:35 pm 19:35 Partly Cloudy 76 24.3 64 17.5 66 66 NNW 3 6 30.05 1018 10 16.0934 0 0
7:55 pm 19:55 Clear 74 23.5 64 17.7 70 70 Calm 30.07 1018 10 16.0934 0 0
8:15 pm 20:15 Clear 72 22.4 64 17.7 75 75 Calm 30.07 1018 10 16.0934 0 0
8:35 pm 20:35 Partly Cloudy 72 22 64 17.5 76 76 Calm 30.08 1019 10 16.0934 0 0
8:55 pm 20:55 Partly Cloudy 71 21.5 64 17.6 79 79 Calm 30.1 1019 10 16.0934 0 0
9:15 pm 21:15 Clear 70 21 63 17.3 80 80 NNW 3 6 30.11 1020 10 16.0934 0 0
9:35 pm 21:35 Clear 69 20.6 63 17.4 82 82 Calm 30.12 1020 10 16.0934 0 0
9:55 pm 21:55 Clear 68 20.1 63 17.3 84 84 Calm 30.13 1020 10 16.0934 0 0
10:15 pm 22:15 Clear 68 19.8 63 17.1 85 85 N 3 6 30.14 1020 10 16.0934 0 0
10:35 pm 22:35 Clear 67 19.5 62 16.8 84 84 Calm 30.14 1021 10 16.0934 0 0
10:55 pm 22:55 Clear 66 19.1 62 16.6 86 86 N 5 7 30.15 1021 10 16.0934 0 0
11:15 pm 23:15 Clear 66 19.1 62 16.5 85 85 N 3 6 30.15 1021 10 16.0934 0 0
11:35 pm 23:35 Clear 65 18.3 62 16.4 89 89 N 3 6 30.15 1021 10 16.0934 0 0
11:55 pm 23:55 Clear 64 18 62 16.4 90 90 N 3 6 30.16 1021 10 16.0934 0 0

Powered by AerisWeather